"Pseudo-MPEC" for P10ImAq

Created 2018 Jul 18 15:18:08 UT using Find_Orb

Click here for an explanation of pseudo-MPECs

 
 Astrometry: 
     P10ImAq  C2018 07 11#FAstrometrypAYg%IJhS#6Yj/o0`QHVqcoukbv!fBqa8A%c/X@EF51
     P10ImAq  C2018 07 11k1.aAnli$cSs=(?Y$redacted;@yFka^\'!k:A6+RxFMl8=JUJwrF51
     P10ImAq  C2018 07 11,,06+0\F3@(nuM.=no;:Ba-91b=/5I%usee3pD,'1c%!7h=T\fpPF51
     P10ImAq  C2018 07 11cW]VCtRiw1d1'jUgKfm5EngfZ#R*TobkL_Ek4wx.^CcKn)?NEOCPF51

Station data:
(F51) Pan-STARRS 1, Haleakala  (N20.707235 W156.255910)  US/Hawaii.
   Observers N. Primak, A. Schultz, S. Watters, J. Thiel, T. Goggia. Measurer
   PS1 Science Consortium. 1.8-m Ritchey-Chrétien + CCD.

Orbital elements:  P10ImAq
   Perihelion 2018 Oct 20.799385 +/- 27.7 TT = 19:11:06 (JD 2458412.299385)
Epoch 2018 Jul 12.0 TT = JDT 2458311.5   Earth MOID: 0.0160   AutoNEOCP
M 258.54653 +/- 41                  (J2000 ecliptic)
n   1.00648893 +/- 0.605            Peri.  297.80111 +/- 52
a   0.98612063 +/- 0.395            Node   109.73357 +/- 1.4
e   0.1450722 +/- 0.237             Incl.   12.70287 +/- 20
P   0.98/357.67d           H 26.1   G  0.15   U 12.4  SR
q 0.84306186 +/- 0.293    Q 1.12917940 +/- 18.4
From 4 observations 2018 July 11 (48.5 min); mean residual 0".22
Residuals in arcseconds: 
180711 F51  .07+  .02+    180711 F51  .36-  .36+    
180711 F51  .08+  .22-    180711 F51  .21+  .17-    

Ephemerides (geocentric):
Date (UTC) HH   RA              Dec         delta   r     elong  mag " sig PA
---- -- -- --  -------------   -----------  ------ ------ -----  --- ---- ---
2018 07 18 15  03 17 10.168   -48 40 03.33  .03036 1.0180  92.4 21.6  30d 166
2018 07 18 16  03 18 50.611   -48 43 03.84  .03047 1.0179  92.2 21.6  30d 166
2018 07 18 17  03 20 30.504   -48 45 57.61  .03058 1.0178  92.0 21.6  30d 166
2018 07 18 18  03 22 09.841   -48 48 44.73  .03070 1.0177  91.8 21.6  30d 166
2018 07 18 19  03 23 48.616   -48 51 25.33  .03081 1.0176  91.6 21.6  30d 165
2018 07 18 20  03 25 26.825   -48 53 59.50  .03093 1.0175  91.4 21.6  30d 165
2018 07 18 21  03 27 04.462   -48 56 27.36  .03104 1.0174  91.2 21.7  30d 165
2018 07 18 22  03 28 41.523   -48 58 49.00  .03116 1.0173  91.1 21.7  30d 165
2018 07 18 23  03 30 18.003   -49 01 04.53  .03128 1.0172  90.9 21.7  30d 165
2018 07 19 00  03 31 53.899   -49 03 14.07  .03140 1.0171  90.7 21.7  30d 165
2018 07 19 01  03 33 29.206   -49 05 17.70  .03151 1.0170  90.5 21.7  30d 165
2018 07 19 02  03 35 03.922   -49 07 15.54  .03163 1.0169  90.3 21.7  30d 165
2018 07 19 03  03 36 38.042   -49 09 07.69  .03175 1.0168  90.1 21.7  30d 164
2018 07 19 04  03 38 11.564   -49 10 54.25  .03188 1.0167  90.0 21.8  30d 164
2018 07 19 05  03 39 44.485   -49 12 35.32  .03200 1.0166  89.8 21.8  30d 164
2018 07 19 06  03 41 16.803   -49 14 11.01  .03212 1.0165  89.6 21.8  30d 164
2018 07 19 07  03 42 48.516   -49 15 41.41  .03224 1.0164  89.4 21.8  30d 164
2018 07 19 08  03 44 19.620   -49 17 06.62  .03236 1.0163  89.2 21.8  30d 164
2018 07 19 09  03 45 50.116   -49 18 26.74  .03249 1.0162  89.1 21.8  30d 164
2018 07 19 10  03 47 20.000   -49 19 41.88  .03261 1.0161  88.9 21.8  30d 164
2018 07 19 11  03 48 49.273   -49 20 52.12  .03274 1.0160  88.7 21.9  30d 164
2018 07 19 12  03 50 17.932   -49 21 57.55  .03286 1.0159  88.6 21.9  30d 164
2018 07 19 13  03 51 45.977   -49 22 58.29  .03299 1.0158  88.4 21.9  30d 163
2018 07 19 14  03 53 13.407   -49 23 54.41  .03312 1.0157  88.2 21.9  30d 163
2018 07 19 15  03 54 40.223   -49 24 46.02  .03324 1.0156  88.1 21.9  30d 163
2018 07 19 16  03 56 06.422   -49 25 33.20  .03337 1.0155  87.9 21.9  30d 163
2018 07 19 17  03 57 32.007   -49 26 16.04  .03350 1.0154  87.7 22.0  30d 163
2018 07 19 18  03 58 56.976   -49 26 54.64  .03363 1.0153  87.6 22.0  30d 163
2018 07 19 19  04 00 21.330   -49 27 29.08  .03376 1.0152  87.4 22.0  30d 163
2018 07 19 20  04 01 45.069   -49 27 59.44  .03389 1.0151  87.2 22.0  29d 163
2018 07 19 21  04 03 08.195   -49 28 25.82  .03402 1.0150  87.1 22.0  29d 163
2018 07 19 22  04 04 30.708   -49 28 48.30  .03415 1.0149  86.9 22.0  29d 163
2018 07 19 23  04 05 52.609   -49 29 06.96  .03428 1.0148  86.8 22.0  29d 163
2018 07 20 00  04 07 13.899   -49 29 21.88  .03441 1.0147  86.6 22.1  29d 162
2018 07 20 01  04 08 34.580   -49 29 33.16  .03454 1.0146  86.4 22.1  29d 162
2018 07 20 02  04 09 54.653   -49 29 40.86  .03468 1.0145  86.3 22.1  29d 162
2018 07 20 03  04 11 14.120   -49 29 45.06  .03481 1.0144  86.1 22.1  29d 162
2018 07 20 04  04 12 32.981   -49 29 45.85  .03494 1.0143  86.0 22.1  29d 162
2018 07 20 05  04 13 51.241   -49 29 43.30  .03508 1.0142  85.8 22.1  29d 162
2018 07 20 06  04 15 08.899   -49 29 37.48  .03521 1.0141  85.7 22.1  29d 162
2018 07 20 07  04 16 25.959   -49 29 28.47  .03535 1.0140  85.5 22.2  29d 162
2018 07 20 08  04 17 42.422   -49 29 16.35  .03548 1.0139  85.4 22.2  29d 162
2018 07 20 09  04 18 58.292   -49 29 01.18  .03562 1.0138  85.2 22.2  29d 162
2018 07 20 10  04 20 13.570   -49 28 43.04  .03575 1.0137  85.1 22.2  29d 162
2018 07 20 11  04 21 28.259   -49 28 21.99  .03589 1.0136  85.0 22.2  29d 162
2018 07 20 12  04 22 42.361   -49 27 58.11  .03603 1.0135  84.8 22.2  29d 162
2018 07 20 13  04 23 55.880   -49 27 31.46  .03617 1.0134  84.7 22.2  29d 162
2018 07 20 14  04 25 08.818   -49 27 02.11  .03630 1.0133  84.5 22.3  29d 161